パンスターズ彗星

C/2021 P2 ( PanSTARRS )

English version
Home page
Updated on September 18, 2021

---------------------------------------------------------------------

・ プロフィール

発見日 2021年8月7日
発見光度 21.5等
発見者 Pan-STARRS 1 telescope (Haleakala)

・ 軌道要素

Epoch 2023 Jan. 16.0 TT = JDT 2459960.5
T 2023 Jan. 22.72010 TT                                 Rudenko
q   5.0691779            (2000.0)            P               Q
z  +0.0004869      Peri.   76.68572     +0.64298664     -0.71855835
 +/-0.0000696      Node    32.07870     -0.73653034     -0.67502043
e   0.9975319      Incl.  150.06346     +0.20997915     -0.16739568
From 35 observations 2021 June 19-Aug. 20, mean residual 0".2.

・ 光度変化

        m1 = 9.0 + 5 logΔ + 10.0 log r

---------------------------------------------------------------------

軌道要素はM.P.E.C. 2021-R75に掲載されたものです。
光度グラフはComet for Windowsで作成したものです。

---------------------------------------------------------------------

Copyright(C) Seiichi Yoshida (comet@aerith.net). All rights reserved.